Starlink 5434

decayed
NORAD ID: 54849 Int'l Des: 2022-177 Owner: SPXS Country: US Constellation: starlink
LEOCIRCULAR

关于 Starlink 5434

正在加载描述...

高度历史

Altitude vs Time

uPlot chart will show altitude changes over time

两行轨道根数

1 54849U 22177AF 25277.47840975 .05904559 91699-5 73781-3 0 9991
2 54849 42.9860 206.0879 0003547 227.1758 132.8835 16.35067098154100
Epoch: Oct 4, 2025 • Age: 1528 hours

当前状态

Position data unavailable
发射日期 Dec 28, 2022
运行时间 2.9 years
衰减日期 Oct 5, 2025
类型 internet

技术详情

分类 Payload
质量 305.00 kg
干质量 290.00 kg
总质量 305.00 kg
长度 0.20 m
直径 2.80 m
跨度 9.00 m
形状 Box + pan
制造商 SPXS
平台类型 Starlink
阶段状态 Reentered
所有者/国家 SPXS/US

大型星座

Loading constellations...